Weather Roundup
Issued by NWS Springfield, MO

Home | Current Version | Previous Version | Text Only | Print | Product List | Glossary On
Versions: 1 2 3 4 5 6 7 8 9 10 11 12 13 14 15 16 17 18 19 20 21 22 23 24 25 26 27 28 29 30 31 32 33 34 35 36 37 38 39 40 41 42 43 44 45 46 47 48 49 50
000
NZUS99 KSGF 211207
HRRSGF

HOURLY WEATHER
NATIONAL WEATHER SERVICE SPRINGFIELD MO
600 AM CST WED FEB 21 2018

......SGF CWA......

CITY           SKY/WX    TMP DP  RH WIND       PRES   REMARKS
SPRINGFIELD    CLOUDY    26  24  92 N15       30.37R WCI  14
6HR MIN TEMP:  26; 6HR MAX TEMP:  30; 6HR PCP: TRACE;

JOPLIN         CLOUDY    24  21  88 NE14      30.43R WCI  12
6HR MIN TEMP:  24; 6HR MAX TEMP:  26;

WEST PLAINS    CLOUDY    33  31  92 N12       30.34R WCI  24
6HR MIN TEMP:  33; 6HR MAX TEMP:  36; 6HR PCP:  0.37;

ROLLA          CLOUDY    25  24  96 N10       30.41R WCI  15
6HR MIN TEMP:  25; 6HR MAX TEMP:  31; 6HR PCP:  0.14;

OSAGE BEACH    CLOUDY    24  22  91 N8        30.45R WCI  15

......SURROUNDING SGF CWA......

CITY           SKY/WX    TMP DP  RH WIND       PRES   REMARKS
CHANUTE        CLOUDY    20  15  81 NE15G21   30.47R WCI   6
PARSONS        CLOUDY    21  18  88 N15       30.46R WCI   8
COFFEYVILLE    CLOUDY    22  19  89 N15       30.44S WCI   9
EMPORIA        CLOUDY    14   8  77 N13G24    30.49S WCI   0
GROVE OK       CLOUDY    28  27  93 N6        30.40R WCI  22
SILOAM SPRINGS CLOUDY    27  26  96 NE13      30.35R WCI  16
HARRISON AR    CLOUDY    31  31 100 VRB5      30.33R WCI  26
NEAR YELLVILLE LGT RAIN  35  33  92 NE6       30.35R WCI  30

......KANSAS AND MISSOURI......

CITY           SKY/WX    TMP DP  RH WIND       PRES   REMARKS
KANSAS CTY INT CLOUDY    14  10  84 N13       30.54R WCI   0
DOWNTOWN KC    CLOUDY    18  11  74 N12       30.55R WCI   5
COLUMBIA       CLOUDY    24  21  88 N12       30.46R WCI  13
SEDALIA        MOCLDY    23  21  92 N15       30.48R WCI  10
ST JOSEPH      PTCLDY    14  10  84 N10       30.58R WCI   1
ST LOUIS       CLOUDY    29  25  85 N12       30.41R WCI  19
SPIRIT OF STL  CLOUDY    29  25  85 N7        30.42R WCI  22
KIRKSVILLE     CLOUDY    19  16  88 NW12      30.52R WCI   7
WICHITA        CLOUDY    16  10  77 N13G21    30.49R WCI   2
TOPEKA         PTCLDY    14   9  80 N9        30.55R WCI   2
OLATHE         CLOUDY    15  12  88 N12       30.51R WCI   2

......TENNESSEE......

CITY           SKY/WX    TMP DP  RH WIND       PRES   REMARKS
MEMPHIS        LGT RAIN  58  57  97 N15       30.23S FOG
NASHVILLE      MOCLDY    71  62  73 S17G25    30.23R

......ARKANSAS.......

CITY           SKY/WX    TMP DP  RH WIND       PRES   REMARKS
FAYETTEVILLE   CLOUDY    31  30  96 N9        30.32R WCI  23
FT SMITH       CLOUDY    38  35  89 NW5       30.31R WCI  34
LITTLE ROCK    HVY RAIN  47  47 100 N8        30.27R FOG

......OKLAHOMA.......

CITY           SKY/WX    TMP DP  RH WIND       PRES   REMARKS
TULSA          CLOUDY    25  22  88 N16G23    30.40S WCI  12
PONCA CITY     MOCLDY    20  13  74 N18       30.44S WCI   5
MCALESTER      CLOUDY    28  27  96 NE15G22   30.30F WCI  16
OKLAHOMA CITY  CLOUDY    22  17  81 N17G29    30.36R WCI   8

......IOWA............

CITY           SKY/WX    TMP DP  RH WIND       PRES   REMARKS
DES MOINES     PTCLDY    13   6  74 N8        30.56R WCI   2
QUAD CITIES    FAIR      22  14  71 NW9       30.47R WCI  12

......ILLINOIS........

CITY           SKY/WX    TMP DP  RH WIND       PRES   REMARKS
QUINCY         MOCLDY    22  18  85 N13       30.44R WCI  10
CHICAGO        CLOUDY    29  22  75 NW15      30.39R WCI  18




USA.gov is the U.S. government's official web portal to all federal, state and local government web resources and services.